Location: Alessandria
(44.9000°N, 8.6170°E)
Time: 03:01:05
(UTC+02:00)

ISS - Pass Details

Date: 17 May 2021
Orbit: 417 x 422 km, 51.6° (Epoch: 14 June)

Event Time Altitude Azimuth Distance (km) Brightness Sun altitude
Rises 03:41:17 0° 298° (WNW) 2,373 0.0 -18.3°
Reaches altitude 10° 03:43:24 10° 295° (WNW) 1,507 -1.1 -18.1°
Maximum altitude 03:46:44 62° 215° (SW) 480 -3.8 -17.8°
Drops below altitude 10° 03:50:04 10° 133° (SE) 1,501 -1.0 -17.4°
Sets 03:52:10 0° 130° (SE) 2,362 0.0 -17.2°
